,,PressureMeas_1m,,PRMeasQMR101_1,,RHStat155_1m_1,,SRMeasQMS101R_1m,,TAStat155_1m_1,,GenWind_1,,GenWind_1,
2017-03-05, 00:00:06,VALID,917.312,VALID,0.0,VALID,98.091,VALID,-0.001,VALID,19.704,VALID,22.0,VALID,0.532,
2017-03-05, 00:01:06,VALID,917.307,VALID,0.0,VALID,98.096,VALID,-0.021,VALID,19.684,VALID,34.0,VALID,0.205,
2017-03-05, 00:02:06,VALID,917.307,VALID,0.0,VALID,98.118,VALID,0.004,VALID,19.715,VALID,37.0,VALID,0.021,
2017-03-05, 00:03:06,VALID,917.308,VALID,0.0,VALID,98.123,VALID,-0.007,VALID,19.722,VALID,47.0,VALID,0.161,
2017-03-05, 00:04:06,VALID,917.29,VALID,0.0,VALID,98.081,VALID,-0.029,VALID,19.659,VALID,46.0,VALID,0.377,
2017-03-05, 00:05:06,VALID,917.291,VALID,0.0,VALID,98.065,VALID,-0.01,VALID,19.636,VALID,44.0,VALID,0.154,
2017-03-05, 00:06:06,VALID,917.266,VALID,0.0,VALID,98.103,VALID,-0.009,VALID,19.631,VALID,44.0,VALID,0.054,
2017-03-05, 00:07:06,VALID,917.245,VALID,0.0,VALID,98.078,VALID,-0.008,VALID,19.612,VALID,29.0,VALID,0.309,
2017-03-05, 00:08:06,VALID,917.219,VALID,0.0,VALID,98.044,VALID,-0.012,VALID,19.579,VALID,14.0,VALID,0.434,
2017-03-05, 00:09:06,VALID,917.195,VALID,0.0,VALID,98.073,VALID,-0.018,VALID,19.596,VALID,7.0,VALID,0.427,
2017-03-05, 00:10:06,VALID,917.171,VALID,0.2,VALID,98.076,VALID,-0.006,VALID,19.61,VALID,13.0,VALID,0.586,
2017-03-05, 00:11:06,VALID,917.155,VALID,0.0,VALID,98.118,VALID,0.001,VALID,19.646,VALID,18.0,VALID,0.536,
2017-03-05, 00:12:06,VALID,917.148,VALID,0.0,VALID,98.057,VALID,-0.015,VALID,19.605,VALID,17.0,VALID,0.562,
2017-03-05, 00:13:06,VALID,917.157,VALID,0.0,VALID,98.048,VALID,0.016,VALID,19.587,VALID,32.0,VALID,0.286,
2017-03-05, 00:14:06,VALID,917.166,VALID,0.0,VALID,98.065,VALID,0.008,VALID,19.592,VALID,49.0,VALID,0.442,
2017-03-05, 00:15:06,VALID,917.156,VALID,0.0,VALID,98.071,VALID,-0.011,VALID,19.592,VALID,42.0,VALID,0.589,
2017-03-05, 00:16:06,VALID,917.16,VALID,0.0,VALID,98.058,VALID,-0.014,VALID,19.588,VALID,38.0,VALID,0.492,
2017-03-05, 00:17:06,VALID,917.149,VALID,0.0,VALID,98.04,VALID,-0.022,VALID,19.568,VALID,43.0,VALID,0.648,
2017-03-05, 00:18:06,VALID,917.14,VALID,0.0,VALID,98.066,VALID,0.004,VALID,19.589,VALID,33.0,VALID,0.414,
2017-03-05, 00:19:06,VALID,917.118,VALID,0.0,VALID,98.059,VALID,0.008,VALID,19.584,VALID,27.0,VALID,0.302,
2017-03-05, 00:20:06,VALID,917.105,VALID,0.0,VALID,98.042,VALID,0.012,VALID,19.568,VALID,34.0,VALID,0.227,
2017-03-05, 00:21:06,VALID,917.094,VALID,0.0,VALID,98.061,VALID,0.011,VALID,19.576,VALID,45.0,VALID,0.411,
2017-03-05, 00:22:06,VALID,917.086,VALID,0.0,VALID,98.068,VALID,0.006,VALID,19.56,VALID,44.0,VALID,0.489,
2017-03-05, 00:23:06,VALID,917.077,VALID,0.0,VALID,98.048,VALID,0.009,VALID,19.545,VALID,58.0,VALID,0.621,
2017-03-05, 00:24:06,VALID,917.086,VALID,0.0,VALID,98.014,VALID,-0.004,VALID,19.517,VALID,65.0,VALID,0.827,
2017-03-05, 00:25:06,VALID,917.087,VALID,0.0,VALID,97.995,VALID,0.022,VALID,19.5,VALID,75.0,VALID,0.964,
2017-03-05, 00:26:06,VALID,917.088,VALID,0.0,VALID,98.017,VALID,0.001,VALID,19.495,VALID,83.0,VALID,0.792,
2017-03-05, 00:27:06,VALID,917.087,VALID,0.0,VALID,98.015,VALID,-0.001,VALID,19.504,VALID,81.0,VALID,0.938,
2017-03-05, 00:28:06,VALID,917.085,VALID,0.0,VALID,98.07,VALID,-0.001,VALID,19.525,VALID,79.0,VALID,0.907,
2017-03-05, 00:29:06,VALID,917.097,VALID,0.0,VALID,98.075,VALID,-0.002,VALID,19.54,VALID,71.0,VALID,0.534,
2017-03-05, 00:30:06,VALID,917.092,VALID,0.0,VALID,98.07,VALID,-0.005,VALID,19.551,VALID,65.0,VALID,0.448,
2017-03-05, 00:31:06,VALID,917.093,VALID,0.0,VALID,98.081,VALID,-0.003,VALID,19.565,VALID,55.0,VALID,0.299,
2017-03-05, 00:32:06,VALID,917.101,VALID,0.0,VALID,98.091,VALID,-0.004,VALID,19.576,VALID,43.0,VALID,0.171,
2017-03-05, 00:33:06,VALID,917.108,VALID,0.0,VALID,98.09,VALID,-0.015,VALID,19.583,VALID,31.0,VALID,0.054,
2017-03-05, 00:34:06,VALID,917.1,VALID,0.0,VALID,98.132,VALID,0.008,VALID,19.593,VALID,1.0,VALID,0.239,
2017-03-05, 00:35:06,VALID,917.098,VALID,0.0,VALID,98.116,VALID,0.005,VALID,19.601,VALID,1.0,VALID,0.186,
2017-03-05, 00:36:06,VALID,917.09,VALID,0.0,VALID,98.091,VALID,-0.006,VALID,19.599,VALID,360.0,VALID,0.19,
2017-03-05, 00:37:06,VALID,917.076,VALID,0.0,VALID,98.11,VALID,-0.02,VALID,19.59,VALID,353.0,VALID,0.126,
2017-03-05, 00:38:06,VALID,917.062,VALID,0.0,VALID,98.105,VALID,-0.012,VALID,19.6,VALID,353.0,VALID,0.016,
2017-03-05, 00:39:06,VALID,917.031,VALID,0.0,VALID,98.095,VALID,-0.01,VALID,19.601,VALID,353.0,VALID,0.06,
2017-03-05, 00:40:06,VALID,917.01,VALID,0.2,VALID,98.091,VALID,-0.008,VALID,19.59,VALID,353.0,VALID,0.009,
2017-03-05, 00:41:06,VALID,916.989,VALID,0.0,VALID,98.088,VALID,-0.002,VALID,19.581,VALID,2.0,VALID,0.261,
2017-03-05, 00:42:06,VALID,916.98,VALID,0.0,VALID,98.037,VALID,-0.01,VALID,19.529,VALID,12.0,VALID,0.332,
2017-03-05, 00:43:06,VALID,916.96,VALID,0.0,VALID,98.091,VALID,0.014,VALID,19.566,VALID,12.0,VALID,0.257,
2017-03-05, 00:44:06,VALID,916.96,VALID,0.0,VALID,97.99,VALID,0.002,VALID,19.484,VALID,12.0,VALID,0.259,
2017-03-05, 00:45:06,VALID,916.967,VALID,0.0,VALID,97.984,VALID,-0.002,VALID,19.449,VALID,12.0,VALID,0.138,
2017-03-05, 00:46:06,VALID,916.956,VALID,0.0,VALID,98.013,VALID,-0.023,VALID,19.454,VALID,12.0,VALID,0.092,
2017-03-05, 00:47:06,VALID,916.953,VALID,0.0,VALID,98.029,VALID,0.011,VALID,19.472,VALID,12.0,VALID,0.178,
2017-03-05, 00:48:06,VALID,916.934,VALID,0.0,VALID,98.032,VALID,-0.005,VALID,19.465,VALID,16.0,VALID,0.151,
2017-03-05, 00:49:06,VALID,916.932,VALID,0.0,VALID,98.048,VALID,-0.004,VALID,19.503,VALID,12.0,VALID,0.253,
2017-03-05, 00:50:06,VALID,916.922,VALID,0.0,VALID,98.095,VALID,-0.026,VALID,19.534,VALID,34.0,VALID,0.345,
2017-03-05, 00:51:06,VALID,916.911,VALID,0.0,VALID,98.04,VALID,-0.009,VALID,19.501,VALID,39.0,VALID,0.44,
2017-03-05, 00:52:06,VALID,916.891,VALID,0.0,VALID,98.009,VALID,-0.015,VALID,19.462,VALID,40.0,VALID,0.237,
2017-03-05, 00:53:06,VALID,916.909,VALID,0.0,VALID,98.002,VALID,-0.008,VALID,19.457,VALID,51.0,VALID,0.271,
2017-03-05, 00:54:06,VALID,916.883,VALID,0.0,VALID,97.955,VALID,-0.014,VALID,19.407,VALID,54.0,VALID,0.206,
2017-03-05, 00:55:06,VALID,916.878,VALID,0.0,VALID,97.979,VALID,-0.018,VALID,19.401,VALID,52.0,VALID,0.088,
2017-03-05, 00:56:06,VALID,916.873,VALID,0.0,VALID,97.947,VALID,-0.023,VALID,19.391,VALID,52.0,VALID,0.088,
2017-03-05, 00:57:06,VALID,916.867,VALID,0.0,VALID,97.965,VALID,-0.014,VALID,19.393,VALID,52.0,VALID,0.037,
2017-03-05, 00:58:06,VALID,916.858,VALID,0.0,VALID,97.987,VALID,-0.033,VALID,19.391,VALID,52.0,VALID,0.013,
2017-03-05, 00:59:06,VALID,916.849,VALID,0.0,VALID,97.967,VALID,-0.007,VALID,19.387,VALID,52.0,VALID,0.055,
2017-03-05, 01:00:06,VALID,916.834,VALID,0.0,VALID,97.961,VALID,-0.028,VALID,19.386,VALID,53.0,VALID,0.079,
2017-03-05, 01:01:06,VALID,916.834,VALID,0.0,VALID,97.952,VALID,-0.029,VALID,19.399,VALID,53.0,VALID,0.078,
2017-03-05, 01:02:06,VALID,916.831,VALID,0.0,VALID,97.942,VALID,-0.008,VALID,19.394,VALID,53.0,VALID,0.041,
2017-03-05, 01:03:06,VALID,916.827,VALID,0.0,VALID,97.94,VALID,0.0,VALID,19.397,VALID,53.0,VALID,0.0,
2017-03-05, 01:04:06,VALID,916.825,VALID,0.0,VALID,97.981,VALID,-0.007,VALID,19.424,VALID,53.0,VALID,0.0,
2017-03-05, 01:05:06,VALID,916.824,VALID,0.0,VALID,97.993,VALID,-0.002,VALID,19.456,VALID,53.0,VALID,0.0,
2017-03-05, 01:06:06,VALID,916.827,VALID,0.0,VALID,98.001,VALID,-0.027,VALID,19.481,VALID,41.0,VALID,0.003,
2017-03-05, 01:07:06,VALID,916.825,VALID,0.0,VALID,97.959,VALID,-0.005,VALID,19.465,VALID,341.0,VALID,0.106,
2017-03-05, 01:08:06,VALID,916.816,VALID,0.0,VALID,97.982,VALID,-0.014,VALID,19.481,VALID,308.0,VALID,0.138,
2017-03-05, 01:09:06,VALID,916.818,VALID,0.0,VALID,97.957,VALID,0.002,VALID,19.487,VALID,291.0,VALID,0.107,
2017-03-05, 01:10:06,VALID,916.808,VALID,0.0,VALID,97.945,VALID,0.014,VALID,19.482,VALID,284.0,VALID,0.109,
2017-03-05, 01:11:06,VALID,916.818,VALID,0.0,VALID,97.927,VALID,0.003,VALID,19.48,VALID,277.0,VALID,0.076,
2017-03-05, 01:12:06,VALID,916.81,VALID,0.0,VALID,97.948,VALID,0.019,VALID,19.481,VALID,277.0,VALID,0.0,
2017-03-05, 01:13:06,VALID,916.795,VALID,0.0,VALID,97.992,VALID,0.001,VALID,19.5,VALID,278.0,VALID,0.0,
2017-03-05, 01:14:06,VALID,916.791,VALID,0.0,VALID,98.044,VALID,0.006,VALID,19.541,VALID,281.0,VALID,0.0,
2017-03-05, 01:15:06,VALID,916.77,VALID,0.0,VALID,98.04,VALID,0.004,VALID,19.566,VALID,281.0,VALID,0.009,
2017-03-05, 01:16:06,VALID,916.767,VALID,0.0,VALID,98.027,VALID,0.005,VALID,19.562,VALID,281.0,VALID,0.0,
2017-03-05, 01:17:06,VALID,916.759,VALID,0.0,VALID,98.025,VALID,0.0,VALID,19.569,VALID,281.0,VALID,0.0,
2017-03-05, 01:18:06,VALID,916.751,VALID,0.0,VALID,98.043,VALID,-0.007,VALID,19.569,VALID,184.0,VALID,0.069,
2017-03-05, 01:19:06,VALID,916.748,VALID,0.0,VALID,98.007,VALID,0.0,VALID,19.531,VALID,152.0,VALID,0.066,
2017-03-05, 01:20:06,VALID,916.726,VALID,0.0,VALID,97.995,VALID,0.006,VALID,19.506,VALID,145.0,VALID,0.13,
2017-03-05, 01:21:06,VALID,916.718,VALID,0.0,VALID,97.961,VALID,-0.005,VALID,19.479,VALID,136.0,VALID,0.077,
2017-03-05, 01:22:06,VALID,916.704,VALID,0.0,VALID,97.966,VALID,-0.012,VALID,19.471,VALID,134.0,VALID,0.0,
2017-03-05, 01:23:06,VALID,916.696,VALID,0.0,VALID,98.007,VALID,0.001,VALID,19.47,VALID,96.0,VALID,0.118,
2017-03-05, 01:24:06,VALID,916.693,VALID,0.0,VALID,97.969,VALID,0.0,VALID,19.442,VALID,85.0,VALID,0.007,
2017-03-05, 01:25:06,VALID,916.686,VALID,0.0,VALID,97.966,VALID,0.007,VALID,19.421,VALID,84.0,VALID,0.0,
2017-03-05, 01:26:06,VALID,916.69,VALID,0.0,VALID,97.959,VALID,0.006,VALID,19.41,VALID,84.0,VALID,0.0,
2017-03-05, 01:27:06,VALID,916.685,VALID,0.0,VALID,97.987,VALID,-0.015,VALID,19.408,VALID,84.0,VALID,0.0,
2017-03-05, 01:28:06,VALID,916.676,VALID,0.0,VALID,98.01,VALID,-0.018,VALID,19.425,VALID,84.0,VALID,0.0,
2017-03-05, 01:29:06,VALID,916.677,VALID,0.0,VALID,98.014,VALID,-0.013,VALID,19.438,VALID,84.0,VALID,0.0,
2017-03-05, 01:30:06,VALID,916.665,VALID,0.0,VALID,98.041,VALID,-0.01,VALID,19.453,VALID,84.0,VALID,0.0,
2017-03-05, 01:31:06,VALID,916.652,VALID,0.0,VALID,98.065,VALID,0.003,VALID,19.477,VALID,84.0,VALID,0.0,
2017-03-05, 01:32:06,VALID,916.632,VALID,0.0,VALID,98.05,VALID,-0.014,VALID,19.489,VALID,84.0,VALID,0.0,
2017-03-05, 01:33:06,VALID,916.621,VALID,0.0,VALID,98.069,VALID,-0.0,VALID,19.496,VALID,84.0,VALID,0.0,
2017-03-05, 01:34:06,VALID,916.598,VALID,0.0,VALID,98.054,VALID,-0.002,VALID,19.496,VALID,87.0,VALID,0.014,
2017-03-05, 01:35:06,VALID,916.576,VALID,0.0,VALID,98.076,VALID,-0.019,VALID,19.505,VALID,90.0,VALID,0.003,
2017-03-05, 01:36:06,VALID,916.554,VALID,0.0,VALID,98.085,VALID,-0.027,VALID,19.522,VALID,112.0,VALID,0.068,
2017-03-05, 01:37:06,VALID,916.536,VALID,0.0,VALID,98.059,VALID,-0.014,VALID,19.511,VALID,135.0,VALID,0.184,
2017-03-05, 01:38:06,VALID,916.525,VALID,0.0,VALID,98.051,VALID,-0.013,VALID,19.504,VALID,169.0,VALID,0.105,
2017-03-05, 01:39:06,VALID,916.516,VALID,0.0,VALID,98.07,VALID,-0.019,VALID,19.51,VALID,169.0,VALID,0.024,
2017-03-05, 01:40:06,VALID,916.499,VALID,0.0,VALID,98.061,VALID,-0.007,VALID,19.516,VALID,169.0,VALID,0.007,
2017-03-05, 01:41:06,VALID,916.495,VALID,0.0,VALID,98.042,VALID,-0.001,VALID,19.505,VALID,169.0,VALID,0.0,
2017-03-05, 01:42:06,VALID,916.496,VALID,0.0,VALID,98.058,VALID,-0.015,VALID,19.499,VALID,169.0,VALID,0.0,
2017-03-05, 01:43:06,VALID,916.467,VALID,0.0,VALID,98.029,VALID,-0.026,VALID,19.486,VALID,169.0,VALID,0.0,
2017-03-05, 01:44:06,VALID,916.462,VALID,0.0,VALID,98.054,VALID,-0.02,VALID,19.477,VALID,170.0,VALID,0.0,
2017-03-05, 01:45:06,VALID,916.447,VALID,0.0,VALID,98.048,VALID,-0.023,VALID,19.468,VALID,187.0,VALID,0.045,
2017-03-05, 01:46:06,VALID,916.431,VALID,0.0,VALID,98.038,VALID,-0.017,VALID,19.451,VALID,184.0,VALID,0.15,
2017-03-05, 01:47:06,VALID,916.418,VALID,0.0,VALID,98.017,VALID,-0.014,VALID,19.434,VALID,191.0,VALID,0.193,
2017-03-05, 01:48:06,VALID,916.393,VALID,0.0,VALID,98.052,VALID,-0.015,VALID,19.427,VALID,184.0,VALID,0.25,
2017-03-05, 01:49:06,VALID,916.373,VALID,0.0,VALID,98.03,VALID,-0.006,VALID,19.415,VALID,182.0,VALID,0.384,
2017-03-05, 01:50:06,VALID,916.363,VALID,0.0,VALID,98.042,VALID,-0.019,VALID,19.403,VALID,182.0,VALID,0.367,
2017-03-05, 01:51:06,VALID,916.342,VALID,0.0,VALID,98.04,VALID,0.004,VALID,19.397,VALID,182.0,VALID,0.204,
2017-03-05, 01:52:06,VALID,916.326,VALID,0.0,VALID,98.047,VALID,-0.015,VALID,19.392,VALID,178.0,VALID,0.317,
2017-03-05, 01:53:06,VALID,916.322,VALID,0.0,VALID,98.056,VALID,-0.019,VALID,19.384,VALID,172.0,VALID,0.289,
2017-03-05, 01:54:06,VALID,916.307,VALID,0.0,VALID,98.064,VALID,-0.013,VALID,19.39,VALID,173.0,VALID,0.08,
2017-03-05, 01:55:06,VALID,916.293,VALID,0.0,VALID,98.058,VALID,-0.011,VALID,19.386,VALID,175.0,VALID,0.152,
2017-03-05, 01:56:06,VALID,916.291,VALID,0.0,VALID,98.06,VALID,0.002,VALID,19.376,VALID,177.0,VALID,0.205,
2017-03-05, 01:57:06,VALID,916.275,VALID,0.0,VALID,98.066,VALID,-0.007,VALID,19.368,VALID,168.0,VALID,0.173,
2017-03-05, 01:58:06,VALID,916.275,VALID,0.0,VALID,98.075,VALID,-0.012,VALID,19.379,VALID,164.0,VALID,0.143,
2017-03-05, 01:59:06,VALID,916.269,VALID,0.0,VALID,98.053,VALID,-0.015,VALID,19.362,VALID,158.0,VALID,0.247,
2017-03-05, 02:00:06,VALID,916.25,VALID,0.2,VALID,98.025,VALID,-0.001,VALID,19.334,VALID,147.0,VALID,0.252,
2017-03-05, 02:01:06,VALID,916.221,VALID,0.0,VALID,98.026,VALID,-0.008,VALID,19.322,VALID,128.0,VALID,0.332,
2017-03-05, 02:02:06,VALID,916.209,VALID,0.0,VALID,98.015,VALID,-0.012,VALID,19.303,VALID,121.0,VALID,0.341,
2017-03-05, 02:03:06,VALID,916.193,VALID,0.0,VALID,98.024,VALID,-0.012,VALID,19.291,VALID,120.0,VALID,0.396,
2017-03-05, 02:04:06,VALID,916.169,VALID,0.0,VALID,98.023,VALID,0.001,VALID,19.29,VALID,120.0,VALID,0.334,
2017-03-05, 02:05:06,VALID,916.161,VALID,0.0,VALID,98.033,VALID,0.0,VALID,19.289,VALID,122.0,VALID,0.298,
2017-03-05, 02:06:06,VALID,916.141,VALID,0.0,VALID,98.023,VALID,-0.016,VALID,19.28,VALID,128.0,VALID,0.371,
2017-03-05, 02:07:06,VALID,916.128,VALID,0.0,VALID,98.03,VALID,-0.014,VALID,19.272,VALID,132.0,VALID,0.554,
2017-03-05, 02:08:06,VALID,916.098,VALID,0.0,VALID,98.05,VALID,-0.018,VALID,19.273,VALID,133.0,VALID,0.52,
2017-03-05, 02:09:06,VALID,916.097,VALID,0.0,VALID,98.062,VALID,-0.012,VALID,19.273,VALID,133.0,VALID,0.566,
2017-03-05, 02:10:06,VALID,916.076,VALID,0.0,VALID,98.045,VALID,-0.009,VALID,19.268,VALID,129.0,VALID,0.507,
2017-03-05, 02:11:06,VALID,916.078,VALID,0.0,VALID,98.031,VALID,-0.004,VALID,19.25,VALID,130.0,VALID,0.608,
2017-03-05, 02:12:06,VALID,916.066,VALID,0.0,VALID,98.053,VALID,0.017,VALID,19.243,VALID,123.0,VALID,0.455,
2017-03-05, 02:13:06,VALID,916.048,VALID,0.0,VALID,98.027,VALID,-0.001,VALID,19.231,VALID,127.0,VALID,0.554,
2017-03-05, 02:14:06,VALID,916.036,VALID,0.0,VALID,98.036,VALID,0.003,VALID,19.223,VALID,127.0,VALID,0.629,
2017-03-05, 02:15:06,VALID,916.028,VALID,0.0,VALID,98.015,VALID,0.009,VALID,19.213,VALID,121.0,VALID,0.773,
2017-03-05, 02:16:06,VALID,916.007,VALID,0.0,VALID,98.016,VALID,0.006,VALID,19.206,VALID,124.0,VALID,0.638,
2017-03-05, 02:17:06,VALID,915.995,VALID,0.0,VALID,98.002,VALID,-0.011,VALID,19.206,VALID,123.0,VALID,0.57,
2017-03-05, 02:18:06,VALID,915.989,VALID,0.0,VALID,97.998,VALID,0.0,VALID,19.207,VALID,122.0,VALID,0.617,
2017-03-05, 02:19:06,VALID,915.97,VALID,0.0,VALID,97.977,VALID,0.008,VALID,19.205,VALID,122.0,VALID,0.464,
2017-03-05, 02:20:06,VALID,915.952,VALID,0.0,VALID,97.978,VALID,0.023,VALID,19.194,VALID,125.0,VALID,0.403,
2017-03-05, 02:21:06,VALID,915.933,VALID,0.0,VALID,97.971,VALID,-0.007,VALID,19.196,VALID,127.0,VALID,0.525,
2017-03-05, 02:22:06,VALID,915.899,VALID,0.0,VALID,97.995,VALID,-0.001,VALID,19.215,VALID,133.0,VALID,0.768,
2017-03-05, 02:23:06,VALID,915.867,VALID,0.0,VALID,98.004,VALID,-0.003,VALID,19.232,VALID,136.0,VALID,0.802,
2017-03-05, 02:24:06,VALID,915.859,VALID,0.0,VALID,97.98,VALID,0.002,VALID,19.228,VALID,133.0,VALID,0.846,
2017-03-05, 02:25:06,VALID,915.854,VALID,0.0,VALID,97.954,VALID,-0.006,VALID,19.213,VALID,146.0,VALID,0.884,
2017-03-05, 02:26:06,VALID,915.854,VALID,0.0,VALID,97.968,VALID,0.011,VALID,19.221,VALID,145.0,VALID,1.221,
2017-03-05, 02:27:06,VALID,915.834,VALID,0.0,VALID,98.011,VALID,0.007,VALID,19.236,VALID,147.0,VALID,1.009,
2017-03-05, 02:28:06,VALID,915.82,VALID,0.0,VALID,98.002,VALID,0.006,VALID,19.243,VALID,151.0,VALID,0.855,
2017-03-05, 02:29:06,VALID,915.788,VALID,0.0,VALID,98.019,VALID,0.001,VALID,19.252,VALID,143.0,VALID,1.043,
2017-03-05, 02:30:06,VALID,915.771,VALID,0.0,VALID,98.039,VALID,0.008,VALID,19.254,VALID,147.0,VALID,1.016,
2017-03-05, 02:31:06,VALID,915.767,VALID,0.0,VALID,98.029,VALID,0.014,VALID,19.257,VALID,161.0,VALID,0.806,
2017-03-05, 02:32:06,VALID,915.764,VALID,0.0,VALID,98.066,VALID,0.028,VALID,19.27,VALID,159.0,VALID,0.807,
2017-03-05, 02:33:06,VALID,915.749,VALID,0.0,VALID,98.083,VALID,-0.003,VALID,19.277,VALID,154.0,VALID,1.401,
2017-03-05, 02:34:06,VALID,915.734,VALID,0.0,VALID,98.063,VALID,0.026,VALID,19.269,VALID,156.0,VALID,1.192,
2017-03-05, 02:35:06,VALID,915.706,VALID,0.0,VALID,98.083,VALID,0.018,VALID,19.272,VALID,154.0,VALID,0.973,
2017-03-05, 02:36:06,VALID,915.698,VALID,0.0,VALID,98.097,VALID,0.013,VALID,19.276,VALID,154.0,VALID,0.885,
2017-03-05, 02:37:06,VALID,915.692,VALID,0.0,VALID,98.09,VALID,0.013,VALID,19.275,VALID,149.0,VALID,1.16,
2017-03-05, 02:38:06,VALID,915.674,VALID,0.0,VALID,98.084,VALID,0.017,VALID,19.256,VALID,147.0,VALID,1.122,
2017-03-05, 02:39:06,VALID,915.653,VALID,0.0,VALID,98.087,VALID,0.009,VALID,19.236,VALID,142.0,VALID,1.08,
2017-03-05, 02:40:06,VALID,915.647,VALID,0.0,VALID,98.088,VALID,0.009,VALID,19.238,VALID,144.0,VALID,0.954,
2017-03-05, 02:41:06,VALID,915.625,VALID,0.0,VALID,98.094,VALID,0.009,VALID,19.232,VALID,142.0,VALID,0.923,
2017-03-05, 02:42:06,VALID,915.62,VALID,0.0,VALID,98.084,VALID,0.035,VALID,19.219,VALID,143.0,VALID,0.684,
2017-03-05, 02:43:06,VALID,915.606,VALID,0.0,VALID,98.095,VALID,0.02,VALID,19.209,VALID,145.0,VALID,0.77,
2017-03-05, 02:44:06,VALID,915.594,VALID,0.0,VALID,98.115,VALID,0.028,VALID,19.215,VALID,145.0,VALID,0.782,
2017-03-05, 02:45:06,VALID,915.578,VALID,0.0,VALID,98.121,VALID,0.011,VALID,19.219,VALID,142.0,VALID,0.814,
2017-03-05, 02:46:06,VALID,915.576,VALID,0.0,VALID,98.13,VALID,0.028,VALID,19.221,VALID,142.0,VALID,0.739,
2017-03-05, 02:47:06,VALID,915.565,VALID,0.0,VALID,98.142,VALID,0.019,VALID,19.233,VALID,153.0,VALID,0.079,
2017-03-05, 02:48:06,VALID,915.553,VALID,0.0,VALID,98.149,VALID,0.014,VALID,19.24,VALID,151.0,VALID,0.308,
2017-03-05, 02:49:06,VALID,915.544,VALID,0.0,VALID,98.157,VALID,-0.003,VALID,19.254,VALID,198.0,VALID,0.083,
2017-03-05, 02:50:06,VALID,915.527,VALID,0.0,VALID,98.145,VALID,-0.003,VALID,19.251,VALID,228.0,VALID,0.0,
2017-03-05, 02:51:06,VALID,915.496,VALID,0.0,VALID,98.161,VALID,-0.011,VALID,19.25,VALID,218.0,VALID,0.0,
2017-03-05, 02:52:06,VALID,915.481,VALID,0.0,VALID,98.16,VALID,-0.02,VALID,19.263,VALID,214.0,VALID,0.0,
2017-03-05, 02:53:06,VALID,915.463,VALID,0.0,VALID,98.182,VALID,-0.021,VALID,19.272,VALID,142.0,VALID,0.372,
2017-03-05, 02:54:06,VALID,915.44,VALID,0.0,VALID,98.178,VALID,-0.011,VALID,19.268,VALID,133.0,VALID,0.313,
2017-03-05, 02:55:06,VALID,915.413,VALID,0.0,VALID,98.175,VALID,-0.007,VALID,19.26,VALID,121.0,VALID,0.29,
2017-03-05, 02:56:06,VALID,915.388,VALID,0.0,VALID,98.18,VALID,0.002,VALID,19.268,VALID,109.0,VALID,0.384,
2017-03-05, 02:57:06,VALID,915.372,VALID,0.0,VALID,98.164,VALID,0.002,VALID,19.257,VALID,134.0,VALID,0.581,
2017-03-05, 02:58:06,VALID,915.353,VALID,0.0,VALID,98.178,VALID,0.001,VALID,19.256,VALID,134.0,VALID,0.849,
2017-03-05, 02:59:06,VALID,915.328,VALID,0.0,VALID,98.175,VALID,-0.004,VALID,19.255,VALID,133.0,VALID,0.655,
2017-03-05, 03:00:06,VALID,915.325,VALID,0.0,VALID,98.184,VALID,-0.002,VALID,19.259,VALID,135.0,VALID,0.639,
2017-03-05, 03:01:06,VALID,915.302,VALID,0.0,VALID,98.172,VALID,-0.015,VALID,19.251,VALID,141.0,VALID,0.451,
2017-03-05, 03:02:06,VALID,915.281,VALID,0.0,VALID,98.172,VALID,-0.01,VALID,19.245,VALID,129.0,VALID,0.388,
2017-03-05, 03:03:06,VALID,915.262,VALID,0.0,VALID,98.193,VALID,-0.01,VALID,19.249,VALID,112.0,VALID,0.509,
2017-03-05, 03:04:06,VALID,915.247,VALID,0.0,VALID,98.202,VALID,-0.012,VALID,19.259,VALID,78.0,VALID,0.17,
2017-03-05, 03:05:06,VALID,915.231,VALID,0.0,VALID,98.199,VALID,-0.003,VALID,19.263,VALID,76.0,VALID,0.068,
2017-03-05, 03:06:06,VALID,915.215,VALID,0.0,VALID,98.199,VALID,-0.028,VALID,19.248,VALID,63.0,VALID,0.125,
2017-03-05, 03:07:06,VALID,915.206,VALID,0.0,VALID,98.178,VALID,-0.021,VALID,19.235,VALID,53.0,VALID,0.344,
2017-03-05, 03:08:06,VALID,915.19,VALID,0.0,VALID,98.189,VALID,-0.008,VALID,19.224,VALID,62.0,VALID,0.427,
2017-03-05, 03:09:06,VALID,915.163,VALID,0.0,VALID,98.188,VALID,0.003,VALID,19.212,VALID,67.0,VALID,0.464,
2017-03-05, 03:10:06,VALID,915.145,VALID,0.0,VALID,98.172,VALID,-0.001,VALID,19.187,VALID,65.0,VALID,0.496,
2017-03-05, 03:11:06,VALID,915.142,VALID,0.0,VALID,98.175,VALID,0.007,VALID,19.18,VALID,66.0,VALID,0.591,
2017-03-05, 03:12:06,VALID,915.124,VALID,0.0,VALID,98.202,VALID,-0.016,VALID,19.193,VALID,67.0,VALID,0.432,
2017-03-05, 03:13:06,VALID,915.112,VALID,0.0,VALID,98.184,VALID,-0.002,VALID,19.189,VALID,63.0,VALID,0.373,
2017-03-05, 03:14:06,VALID,915.102,VALID,0.0,VALID,98.194,VALID,-0.018,VALID,19.17,VALID,74.0,VALID,0.323,
2017-03-05, 03:15:06,VALID,915.094,VALID,0.0,VALID,98.189,VALID,0.004,VALID,19.156,VALID,74.0,VALID,0.391,
2017-03-05, 03:16:06,VALID,915.074,VALID,0.0,VALID,98.176,VALID,0.0,VALID,19.147,VALID,74.0,VALID,0.372,
2017-03-05, 03:17:06,VALID,915.061,VALID,0.0,VALID,98.187,VALID,-0.02,VALID,19.143,VALID,73.0,VALID,0.296,
2017-03-05, 03:18:06,VALID,915.061,VALID,0.0,VALID,98.181,VALID,0.009,VALID,19.132,VALID,63.0,VALID,0.253,
2017-03-05, 03:19:06,VALID,915.041,VALID,0.0,VALID,98.194,VALID,-0.004,VALID,19.12,VALID,63.0,VALID,0.28,
2017-03-05, 03:20:06,VALID,915.027,VALID,0.0,VALID,98.187,VALID,-0.006,VALID,19.115,VALID,63.0,VALID,0.165,
2017-03-05, 03:21:06,VALID,915.017,VALID,0.0,VALID,98.209,VALID,0.01,VALID,19.108,VALID,63.0,VALID,0.175,
2017-03-05, 03:22:06,VALID,915.017,VALID,0.0,VALID,98.191,VALID,-0.009,VALID,19.101,VALID,63.0,VALID,0.271,
2017-03-05, 03:23:06,VALID,915.009,VALID,0.0,VALID,98.195,VALID,0.007,VALID,19.091,VALID,62.0,VALID,0.404,
2017-03-05, 03:24:06,VALID,915.002,VALID,0.0,VALID,98.192,VALID,-0.021,VALID,19.083,VALID,50.0,VALID,0.476,
2017-03-05, 03:25:06,VALID,915.014,VALID,0.0,VALID,98.217,VALID,0.006,VALID,19.096,VALID,42.0,VALID,0.311,
2017-03-05, 03:26:06,VALID,914.994,VALID,0.0,VALID,98.209,VALID,0.009,VALID,19.102,VALID,41.0,VALID,0.217,
2017-03-05, 03:27:06,VALID,914.993,VALID,0.0,VALID,98.207,VALID,0.015,VALID,19.087,VALID,41.0,VALID,0.001,
2017-03-05, 03:28:06,VALID,914.991,VALID,0.0,VALID,98.233,VALID,0.013,VALID,19.098,VALID,38.0,VALID,0.01,
2017-03-05, 03:29:06,VALID,914.976,VALID,0.0,VALID,98.225,VALID,0.008,VALID,19.106,VALID,33.0,VALID,0.016,
2017-03-05, 03:30:06,VALID,914.959,VALID,0.0,VALID,98.21,VALID,0.013,VALID,19.092,VALID,11.0,VALID,0.095,
2017-03-05, 03:31:06,VALID,914.942,VALID,0.0,VALID,98.198,VALID,-0.007,VALID,19.074,VALID,11.0,VALID,0.116,
2017-03-05, 03:32:06,VALID,914.931,VALID,0.0,VALID,98.188,VALID,-0.007,VALID,19.043,VALID,11.0,VALID,0.08,
2017-03-05, 03:33:06,VALID,914.929,VALID,0.0,VALID,98.198,VALID,0.002,VALID,19.031,VALID,15.0,VALID,0.164,
2017-03-05, 03:34:06,VALID,914.93,VALID,0.0,VALID,98.206,VALID,-0.006,VALID,19.023,VALID,29.0,VALID,0.173,
2017-03-05, 03:35:06,VALID,914.925,VALID,0.0,VALID,98.196,VALID,0.006,VALID,19.018,VALID,40.0,VALID,0.282,
2017-03-05, 03:36:06,VALID,914.916,VALID,0.0,VALID,98.197,VALID,0.0,VALID,19.006,VALID,40.0,VALID,0.347,
2017-03-05, 03:37:06,VALID,914.902,VALID,0.0,VALID,98.204,VALID,-0.007,VALID,19.002,VALID,40.0,VALID,0.491,
2017-03-05, 03:38:06,VALID,914.903,VALID,0.0,VALID,98.215,VALID,-0.018,VALID,18.995,VALID,38.0,VALID,0.602,
2017-03-05, 03:39:06,VALID,914.897,VALID,0.0,VALID,98.225,VALID,-0.005,VALID,18.987,VALID,34.0,VALID,0.682,